Location: Treviso
(45.6669°N, 12.2430°E)
Time: 10:22:35
(UTC+02:00)

ISS - Pass Details

Date: 19 May 2018
Orbit: 402 x 407 km, 51.6° (Epoch: 23 May)

Event Time Altitude Azimuth Distance (km) Brightness Sun altitude
Exits shadow 00:57:33 26° 34° (NE) 831 -1.8 -24.6°
Drops below altitude 10° 00:59:20 10° 55° (NE) 1,459 -0.6 -24.6°
Sets 01:01:29 0° 63° (ENE) 2,320 0.4 -24.6°
